1327968028412,138.844
1327968088412,138.838
1327968148412,138.623
1327968208412,138.796
1327968268412,138.653
1327968328412,138.497
1327968388412,138.649
1327968448412,138.770
1327968508412,138.536
1327968568412,138.790
1327968628412,138.732
1327968688412,138.740
1327968748412,138.340
1327968808412,138.249
1327968868412,138.627
1327968928412,138.743
1327968988412,138.888
1327969048412,138.631
1327969108412,138.636
1327969168412,138.647
1327969228412,138.537
1327969288412,138.412
1327969348412,138.170
1327969408412,138.469
1327969468412,138.808
1327969528412,138.530
1327969588412,138.465
1327969648412,138.752
1327969708412,138.356
1327969768412,138.616
1327969828412,138.329
1327969888412,138.779
1327969948412,138.515
1327970008412,138.299
1327970068412,138.127
1327970128412,138.467
1327970188412,138.268
1327970248412,138.310
1327970308412,138.273
1327970368412,138.456
1327970428412,138.459
1327970488412,138.558
1327970548412,138.274
1327970608412,138.371
1327970668412,138.436
1327970728412,138.256
1327970788412,138.585
1327970848412,138.585
1327970908412,138.431
1327970968412,138.167
1327971028412,137.952
1327971088412,138.356
1327971148412,137.868
1327971208412,138.238
1327971268412,137.901
1327971328412,138.484
1327971388412,138.157
1327971448412,138.577
1327971508412,138.450
1327971568412,138.670
1327971628422,138.342
1327971688422,138.143
1327971748422,138.535
1327971808422,138.641
1327971868422,138.344
1327971928422,138.496
1327971988422,138.504
1327972048422,138.327
1327972108422,138.325
1327972168422,138.282
1327972228422,138.610
1327972288422,138.393
1327972348422,138.431
1327972408422,138.595
1327972468422,138.492
1327972528422,138.306
1327972588422,138.112
1327972648422,138.590
1327972708422,138.866
1327972768422,138.234
1327972828422,138.261
1327972888422,138.490
1327972948422,138.773
1327973008422,138.368
1327973068422,138.666
1327973128422,138.340
1327973188422,138.453
1327973248422,138.761
1327973308422,138.435
1327973368422,138.489
1327973428422,138.513
1327973488422,138.201
1327973548422,138.266
1327973608422,138.642
1327973668422,138.679
1327973728422,138.485
1327973788422,138.401
1327973848422,138.455
1327973908422,138.797
1327973968422,138.446
1327974028422,138.473
1327974088422,138.715
1327974148422,138.811
1327974208422,138.710
1327974268422,138.907
1327974328422,138.427
1327974388422,138.542
1327974448422,138.815
1327974508422,138.615
1327974568422,138.647
1327974628422,138.747
1327974688422,138.586
1327974748422,138.661
1327974808422,138.853
1327974868422,139.156
1327974928422,138.912
1327974988422,138.776
1327975048422,138.695
1327975108422,138.910
1327975168422,138.588
1327975228432,138.883
1327975288432,138.792
1327975348432,138.558
1327975408432,138.928
1327975468432,138.655
1327975528432,139.039
1327975588432,138.460
1327975648432,138.839
1327975708432,138.972
1327975768432,138.901
1327975828432,138.955
1327975888432,138.832
1327975948432,138.864
1327976008432,138.849
1327976068432,138.909
1327976128432,138.856
1327976188432,138.952
1327976248432,138.981
1327976308432,138.982
1327976368432,139.334
1327976428432,139.007
1327976488432,138.812
1327976548432,139.073
1327976608432,138.893
1327976668432,138.886
1327976728432,139.193
1327976788432,139.110
1327976848432,138.981
1327976908432,138.945
1327976968432,139.072
1327977028432,139.161
1327977088432,139.130
1327977148432,139.065
1327977208432,138.841
1327977268432,138.880
1327977328432,139.132
1327977388432,139.074
1327977448432,138.603
1327977508432,138.909
1327977568432,138.946
1327977628432,139.028
1327977688432,139.063
1327977748432,138.756
1327977808432,138.941
1327977868432,138.817
1327977928432,139.047
1327977988432,138.959
1327978048432,138.962
1327978108432,139.020
1327978168432,139.080
1327978228432,139.342
1327978288432,139.112
1327978348432,138.986
1327978408432,139.151
1327978468432,139.103
1327978528432,139.240
1327978588432,139.262
1327978648432,139.449
1327978708432,139.262
1327978768432,139.095
1327978828443,139.121
1327978888443,139.502
1327978948443,139.333
1327979008443,139.269
1327979068443,139.095
1327979128443,139.374
1327979188443,139.399
1327979248443,139.431
1327979308443,139.322
1327979368443,139.428
1327979428443,139.115
1327979488443,139.519
1327979548443,139.310
1327979608443,139.298
1327979668443,139.256
1327979728443,139.077
1327979788443,139.503
1327979848443,139.505
1327979908443,139.489
1327979968443,139.429
1327980028443,139.416
1327980088443,139.271
1327980148443,139.584
1327980208443,139.798
1327980268443,139.192
1327980328443,139.269
1327980388443,139.309
1327980448443,139.400
1327980508443,139.046
1327980568443,139.088
1327980628443,139.033
1327980688443,139.147
1327980748443,139.353
1327980808443,139.201
1327980868443,139.342
1327980928443,139.174
1327980988443,139.440
1327981048443,139.258
1327981108443,139.011
1327981168443,138.861
1327981228443,139.287
1327981288443,139.399
1327981348443,139.096
1327981408443,139.221
1327981468443,139.374
1327981528443,139.303
1327981588443,138.865
1327981648443,139.272
1327981708443,138.925
1327981768443,139.115
1327981828443,139.052
1327981888443,138.712
1327981948443,138.734
1327982008443,139.177
1327982068443,138.995
1327982128443,138.944
1327982188443,139.063
1327982248443,139.044
1327982308443,139.174
1327982368443,139.133
1327982428453,138.933
1327982488453,139.151
1327982548453,138.930
1327982608453,138.648
1327982668453,138.935
1327982728453,139.019
1327982788453,138.840
1327982848453,138.684
1327982908453,138.845
1327982968453,138.761
1327983028453,138.811
1327983088453,138.923
1327983148453,139.050
1327983208453,139.017
1327983268453,139.418
1327983328453,138.812
1327983388453,138.811
1327983448453,138.690
1327983508453,138.676
1327983568453,138.869
1327983628453,138.623
1327983688453,138.755
1327983748453,138.671
1327983808453,138.931
1327983868453,138.859
1327983928453,138.699
1327983988453,139.041
1327984048453,139.033
1327984108453,138.685
1327984168453,138.797
1327984228453,138.807
1327984288453,138.956
1327984348453,138.817
1327984408453,139.116
1327984468453,138.966
1327984528453,138.819
1327984588453,138.966
1327984648453,138.841
1327984708453,138.852
1327984768453,139.185
1327984828453,138.972
1327984888453,138.796
1327984948453,138.929
1327985008453,138.863
1327985068453,139.307
1327985128453,138.859
1327985188453,138.830
1327985248453,139.165
1327985308453,139.270
1327985368453,139.165
1327985428453,138.808
1327985488453,138.973
1327985548453,139.033
1327985608453,138.887
1327985668453,138.908
1327985728453,139.111
1327985788453,138.720
1327985848453,138.999
1327985908453,138.924
1327985968453,139.102
1327986028464,138.808
1327986088464,138.977
1327986148464,138.916
1327986208464,138.931
1327986268464,138.846
1327986328464,138.859
1327986388464,138.762
1327986448464,138.790
1327986508464,138.825
1327986568464,138.610
1327986628464,138.684
1327986688464,138.709
1327986748464,139.038
1327986808464,138.723
1327986868464,138.652
1327986928464,138.760
1327986988464,138.579
1327987048464,138.813
1327987108464,138.789
1327987168464,138.827
1327987228464,138.834
1327987288464,138.794
1327987348464,138.738
1327987408464,138.631
1327987468464,138.746
1327987528464,138.599
1327987588464,138.757
1327987648464,138.713
1327987708464,138.802
1327987768464,139.071
1327987828464,138.713
1327987888464,138.717
1327987948464,138.634
1327988008464,138.780
1327988068464,138.508
1327988128464,138.221
1327988188464,138.534
1327988248464,138.334
1327988308464,138.618
1327988368464,138.407
1327988428464,138.554
1327988488464,138.433
1327988548464,138.536
1327988608464,138.428
1327988668464,138.112
1327988728464,138.017
1327988788464,138.319
1327988848464,138.211
1327988908464,138.105
1327988968464,138.329
1327989028464,138.028
1327989088464,138.450
1327989148464,138.314
1327989208464,138.167
1327989268464,138.341
1327989328464,138.345
1327989388464,138.193
1327989448464,138.223
1327989508464,138.163
1327989568464,138.231
1327989628475,138.449
1327989688475,138.108
1327989748475,138.269
1327989808475,138.019
1327989868475,138.068
1327989928475,138.109
1327989988475,138.076
1327990048475,138.263
1327990108475,137.957
1327990168475,137.805
1327990228475,138.232
1327990288475,138.056
1327990348475,137.938
1327990408475,137.824
1327990468475,138.246
1327990528475,137.989
1327990588475,138.059
1327990648475,138.190
1327990708475,138.019
1327990768475,138.143
1327990828475,138.251
1327990888475,138.299
1327990948475,138.220
1327991008475,138.090
1327991068475,137.893
1327991128475,138.205
1327991188475,138.224
1327991248475,138.047
1327991308475,138.227
1327991368475,138.053
1327991428475,138.246
1327991488475,138.310
1327991548475,137.991
1327991608475,138.015
1327991668475,137.754
1327991728475,137.958
1327991788475,138.219
1327991848475,138.040
1327991908475,138.445
1327991968475,137.946
1327992028475,138.031
1327992088475,137.962
1327992148475,138.310
1327992208475,137.795
1327992268475,137.900
1327992328475,137.906
1327992388475,138.053
1327992448475,138.025
1327992508475,138.004
1327992568475,138.038
1327992628475,137.937
1327992688475,137.967
1327992748475,138.004
1327992808475,137.943
1327992868475,138.114
1327992928475,138.094
1327992988475,138.115
1327993048475,137.922
1327993108475,138.012
1327993168475,138.038
1327993228487,138.045
1327993288487,138.275
1327993348487,138.113
1327993408487,137.946
1327993468487,138.248
1327993528487,137.934
1327993588487,138.070
1327993648487,137.896
1327993708487,138.047
1327993768487,138.289
1327993828487,138.261
1327993888487,138.498
1327993948487,138.124
1327994008487,138.176
1327994068487,137.985
1327994128487,137.752
1327994188487,137.966
1327994248487,137.972
1327994308487,138.347
1327994368487,137.852
1327994428487,137.937
1327994488487,138.103
1327994548487,137.839
1327994608487,138.436
1327994668487,138.308
1327994728487,138.299
1327994788487,138.074
1327994848487,137.926
1327994908487,137.940
1327994968487,137.817
1327995028487,137.863
1327995088487,137.850
1327995148487,138.022
1327995208487,137.949
1327995268487,138.038
1327995328487,138.196
1327995388487,138.058
1327995448487,138.150
1327995508487,138.012
1327995568487,138.097
1327995628487,138.245
1327995688487,137.734
1327995748487,138.119
1327995808487,138.103
1327995868487,137.635
1327995928487,137.917
1327995988487,137.816
1327996048487,137.575
1327996108487,137.506
1327996168487,137.682
1327996228487,137.817
1327996288487,137.651
1327996348487,137.679
1327996408487,137.657
1327996468487,138.041
1327996528487,137.916
1327996588487,137.935
1327996648487,137.808
1327996708487,137.885
1327996768487,138.068
1327996828498,137.864
1327996888498,137.813
1327996948498,138.127
1327997008498,137.955
1327997068498,138.072
1327997128498,137.843
1327997188498,137.784
1327997248498,138.008
1327997308498,137.861
1327997368498,137.745
1327997428498,137.706
1327997488498,137.622
1327997548498,137.857
1327997608498,137.963
1327997668498,137.741
1327997728498,137.887
1327997788498,138.060
1327997848498,137.839
1327997908498,137.828
1327997968498,137.709
1327998028498,137.963
1327998088498,137.665
1327998148498,137.986
1327998208498,137.890
1327998268498,137.849
1327998328498,137.996
1327998388498,138.157
1327998448498,137.829
1327998508498,138.007
1327998568498,137.511
1327998628498,137.920
1327998688498,138.048
1327998748498,137.845
1327998808498,138.038
1327998868498,138.168
1327998928498,137.990
1327998988498,137.899
1327999048498,138.141
1327999108498,138.128
1327999168498,138.112
1327999228498,138.074
1327999288498,138.037
1327999348498,138.153
1327999408498,138.328
1327999468498,138.158
1327999528498,137.952
1327999588498,138.004
1327999648498,138.219
1327999708498,137.816
1327999768498,137.940
1327999828498,137.883
1327999888498,137.830
1327999948498,138.153
1328000008498,137.966
1328000068498,138.107
1328000128498,137.923
1328000188498,138.192
1328000248498,138.123
1328000308498,137.952
1328000368498,138.233
1328000428510,137.869
1328000488510,137.905
1328000548510,138.124
1328000608510,138.298
1328000668510,137.794
1328000728510,137.897
1328000788510,138.075
1328000848510,137.982
1328000908510,138.233
1328000968510,138.013
1328001028510,138.163
1328001088510,138.162
1328001148510,137.864
1328001208510,137.776
1328001268510,137.961
1328001328510,138.199
1328001388510,138.047
1328001448510,137.953
1328001508510,138.233
1328001568510,138.143
1328001628510,137.880
1328001688510,137.958
1328001748510,138.183
1328001808510,137.681
1328001868510,138.020
1328001928510,137.725
1328001988510,138.032
1328002048510,137.896
1328002108510,138.353
1328002168510,137.833
1328002228510,138.072
1328002288510,138.219
1328002348510,137.926
1328002408510,138.210
1328002468510,138.253
1328002528510,138.099
1328002588510,138.380
1328002648510,138.368
1328002708510,138.354
1328002768510,138.233
1328002828510,138.533
1328002888510,138.552
1328002948510,138.276
1328003008510,138.223
1328003068510,138.240
1328003128510,138.475
1328003188510,138.382
1328003248510,138.331
1328003308510,138.372
1328003368510,138.429
1328003428510,138.236
1328003488510,138.321
1328003548510,138.323
1328003608510,138.514
1328003668510,138.491
1328003728510,138.397
1328003788510,138.535
1328003848510,138.330
1328003908510,138.370
1328003968510,138.457
1328004028521,138.562
1328004088521,138.327
1328004148521,138.551
1328004208521,138.229
1328004268521,138.109
1328004328521,138.546
1328004388521,138.155
1328004448521,138.516
1328004508521,138.393
1328004568521,138.294
1328004628521,138.077
1328004688521,138.547
1328004748521,138.330
1328004808521,138.080
1328004868521,138.249
1328004928521,138.020
1328004988521,138.395
1328005048521,138.291
1328005108521,138.072
1328005168521,138.469
1328005228521,137.760
1328005288521,138.256
1328005348521,138.659
1328005408521,138.242
1328005468521,138.225
1328005528521,138.059
1328005588521,137.937
1328005648521,138.468
1328005708521,138.119
1328005768521,138.132
1328005828521,138.228
1328005888521,138.092
1328005948521,138.175
1328006008521,138.235
1328006068521,138.212
1328006128521,138.038
1328006188521,138.139
1328006248521,137.865
1328006308521,138.193
1328006368521,137.774
1328006428521,138.094
1328006488521,138.244
1328006548521,137.838
1328006608521,137.912
1328006668521,138.093
1328006728521,138.045
1328006788521,138.145
1328006848521,137.884
1328006908521,138.051
1328006968521,138.034
1328007028521,137.683
1328007088521,137.807
1328007148521,138.087
1328007208521,138.096
1328007268521,137.760
1328007328521,137.820
1328007388521,137.682
1328007448521,137.862
1328007508521,138.001
1328007568521,137.939
1328007628533,137.981
1328007688533,137.998
1328007748533,137.727
1328007808533,137.835
1328007868533,137.874
1328007928533,138.020
1328007988533,137.871
1328008048533,137.893
1328008108533,137.622
1328008168533,138.038
1328008228533,138.142
1328008288533,138.100
1328008348533,138.329
1328008408533,137.949
1328008468533,138.012
1328008528533,138.010
1328008588533,137.872
1328008648533,138.057
1328008708533,138.238
1328008768533,137.816
1328008828533,137.893
1328008888533,137.999
1328008948533,137.979
1328009008533,137.908
1328009068533,137.770
1328009128533,138.321
1328009188533,138.180
1328009248533,138.113
1328009308533,138.109
1328009368533,138.336
1328009428533,137.956
1328009488533,137.920
1328009548533,138.044
1328009608533,137.983
1328009668533,138.049
1328009728533,138.225
1328009788533,137.935
1328009848533,138.259
1328009908533,138.207
1328009968533,138.117
1328010028533,138.257
1328010088533,137.936
1328010148533,138.372
1328010208533,138.080
1328010268533,138.075
1328010328533,138.123
1328010388533,138.437
1328010448533,138.295
1328010508533,138.435
1328010568533,138.154
1328010628533,138.328
1328010688533,137.955
1328010748533,138.615
1328010808533,138.119
1328010868533,138.515
1328010928533,138.451
1328010988533,138.318
1328011048533,138.603
1328011108533,138.693
1328011168533,138.481
1328011228545,138.431
1328011288545,138.496
1328011348545,138.680
1328011408544,138.541
1328011468544,138.438
1328011528544,138.951
1328011588544,138.783
1328011648544,138.614
1328011708545,138.775
1328011768545,138.938
1328011828545,138.544
1328011888545,138.519
1328011948545,138.716
1328012008545,139.149
1328012068545,138.710
1328012128545,138.687
1328012188545,139.003
1328012248545,138.825
1328012308545,139.019
1328012368545,139.023
1328012428545,138.771
1328012488545,138.945
1328012548545,138.932
1328012608545,139.142
1328012668545,139.230
1328012728544,139.199
1328012788544,138.886
1328012848544,139.189
1328012908544,139.268
1328012968544,139.143
1328013028545,139.137
1328013088545,139.366
1328013148545,139.227
1328013208545,139.128
1328013268545,139.356
1328013328545,139.216
1328013388545,139.593
1328013448545,139.370
1328013508545,139.327
1328013568545,139.261
1328013628545,139.157
1328013688545,139.016
1328013748545,139.009
1328013808545,139.351
1328013868545,139.148
1328013928545,138.977
1328013988545,139.102
1328014048545,138.976
1328014108544,139.330
1328014168544,139.121
1328014228544,139.139
1328014288544,139.216
1328014348544,139.405
1328014408545,139.103
1328014468545,139.152
1328014528545,139.088
1328014588545,138.968
1328014648545,139.080
1328014708545,139.313
1328014768545,139.170
1328014828556,139.163
1328014888556,139.198
1328014948556,139.189
1328015008556,138.945
1328015068556,139.017
1328015128556,139.229
1328015188556,139.149
1328015248556,139.208
1328015308556,139.192
1328015368556,139.029
1328015428556,139.256
1328015488556,139.099
1328015548556,139.072
1328015608556,139.015
1328015668556,139.159
1328015728556,139.101
1328015788556,138.878
1328015848556,138.900
1328015908556,139.099
1328015968556,138.948
1328016028556,139.147
1328016088556,139.135
1328016148556,138.941
1328016208556,138.904
1328016268556,138.974
1328016328556,138.983
1328016388556,138.970
1328016448556,139.302
1328016508556,138.869
1328016568556,139.141
1328016628556,139.117
1328016688556,139.195
1328016748556,139.196
1328016808556,139.710
1328016868556,139.218
1328016928556,139.395
1328016988556,139.320
1328017048556,139.193
1328017108556,139.285
1328017168556,138.745
1328017228556,139.021
1328017288556,138.965
1328017348556,139.327
1328017408556,138.982
1328017468556,138.891
1328017528556,139.191
1328017588556,139.083
1328017648556,139.076
1328017708556,139.308
1328017768556,139.251
1328017828556,139.039
1328017888556,138.835
1328017948556,138.975
1328018008556,138.965
1328018068556,138.864
1328018128556,139.102
1328018188556,139.282
1328018248556,138.970
1328018308556,138.997
1328018368556,138.816
1328018428568,138.930
1328018488568,138.973
1328018548568,139.082
1328018608568,138.918
1328018668568,138.651
1328018728568,139.028
1328018788568,138.708
1328018848568,139.051
1328018908568,139.008
1328018968568,138.826
1328019028568,139.152
1328019088568,139.016
1328019148568,138.845
1328019208568,139.331
1328019268568,139.139
1328019328568,139.230
1328019388568,138.984
1328019448568,139.102
1328019508568,139.365
1328019568568,139.370
1328019628568,139.357
1328019688568,139.585
1328019748568,139.244
1328019808568,139.121
1328019868568,138.954
1328019928568,139.272
1328019988568,139.208
1328020048568,139.571
1328020108568,139.329
1328020168568,138.843
1328020228568,139.315
1328020288568,139.382
1328020348568,139.537
1328020408568,139.621
1328020468568,139.327
1328020528568,139.231
1328020588568,139.232
1328020648568,139.065
1328020708568,139.527
1328020768568,139.360
1328020828568,139.333
1328020888568,139.214
1328020948568,139.278
1328021008568,138.891
1328021068568,139.210
1328021128568,139.116
1328021188568,139.286
1328021248568,139.418
1328021308568,139.388
1328021368568,139.569
1328021428568,139.474
1328021488568,139.602
1328021548568,139.519
1328021608568,139.460
1328021668568,139.501
1328021728568,139.391
1328021788568,139.485
1328021848568,139.353
1328021908568,139.551
1328021968568,139.735
1328022028579,139.805
1328022088579,139.645
1328022148579,139.560
1328022208579,139.536
1328022268579,139.771
1328022328579,139.745
1328022388579,139.826
1328022448579,139.652
1328022508579,139.532
1328022568579,139.649
1328022628579,139.768
1328022688579,139.757
1328022748579,139.885
1328022808579,139.807
1328022868579,140.065
1328022928579,140.115
1328022988579,139.882
1328023048579,139.747
1328023108579,139.953
1328023168579,139.778
1328023228579,140.063
1328023288579,139.962
1328023348579,139.798
1328023408579,140.168
1328023468579,139.794
1328023528579,139.744
1328023588579,139.807
1328023648579,139.521
1328023708579,139.496
1328023768579,139.970
1328023828579,139.713
1328023888579,139.777
1328023948579,139.720
1328024008579,139.733
1328024068579,139.293
1328024128579,139.544
1328024188579,139.641
1328024248579,139.161
1328024308579,139.617
1328024368579,139.162
1328024428579,139.038
1328024488579,139.543
1328024548579,139.336
1328024608579,139.386
1328024668579,139.242
1328024728579,139.239
1328024788579,139.560
1328024848579,139.482
1328024908579,139.427
1328024968579,139.398
1328025028579,139.313
1328025088579,138.953
1328025148579,139.609
1328025208579,139.369
1328025268579,139.455
1328025328579,139.180
1328025388579,139.229
1328025448579,139.292
1328025508579,138.929
1328025568579,139.376
1328025628590,139.375
1328025688590,139.308
1328025748590,139.243
1328025808590,139.183
1328025868590,139.007
1328025928590,139.042
1328025988590,138.966
1328026048590,138.641
1328026108590,139.225
1328026168590,138.913
1328026228590,138.969
1328026288590,139.027
1328026348590,138.923
1328026408590,138.972
1328026468590,139.053
1328026528590,138.784
1328026588591,138.810
1328026648590,138.667
1328026708590,138.812
1328026768590,138.934
1328026828590,139.124
1328026888590,138.673
1328026948590,138.878
1328027008590,138.586
1328027068590,138.572
1328027128590,138.763
1328027188590,138.699
1328027248590,138.468
1328027308590,138.674
1328027368590,138.758
1328027428590,138.700
1328027488590,138.530
1328027548590,138.881
1328027608590,138.903
1328027668590,138.744
1328027728590,138.772
1328027788590,138.416
1328027848590,138.711
1328027908591,138.647
1328027968591,138.682
1328028028590,138.565
1328028088590,138.758
1328028148590,138.957
1328028208590,138.644
1328028268590,138.851
1328028328590,138.527
1328028388590,138.831
1328028448590,138.462
1328028508590,138.805
1328028568590,138.878
1328028628590,138.587
1328028688590,138.494
1328028748590,138.582
1328028808590,138.635
1328028868590,138.351
1328028928590,138.545
1328028988590,138.624
1328029048590,138.469
1328029108590,138.570
1328029168590,138.829
1328029228602,138.552
1328029288602,138.552
1328029348602,138.426
1328029408602,138.302
1328029468602,138.380
1328029528602,138.594
1328029588602,138.438
1328029648602,138.324
1328029708602,138.237
1328029768602,138.169
1328029828602,138.112
1328029888602,138.211
1328030428602,137.940
1328030488602,137.944
1328030548602,138.172
1328030608602,138.059
1328030668602,138.412
1328030728602,137.934
1328030788602,138.126
1328030848602,137.944
1328030908602,138.277
1328030968602,138.147
1328031028602,137.881
1328031088602,138.170
1328031148602,137.827
1328031208602,138.298
1328031268602,138.088
1328031328602,137.854
1328031388602,138.033
1328031448602,137.826
1328031508602,138.178
1328031568602,138.168
1328031628602,138.061
1328031688602,137.952
1328031748602,137.741
1328031808602,138.060
1328031868602,138.275
1328031928602,138.047
1328031988602,138.342
1328032048602,138.491
1328032108602,138.210
1328032168602,138.239
1328032228602,138.070
1328032288602,138.557
1328032348602,138.358
1328032408602,137.937
1328032468602,138.299
1328032528602,138.027
1328032588602,138.437
1328032648602,138.206
1328032708602,138.387
1328032768602,138.186
1328032828613,138.527
1328032888613,138.329
1328032948613,138.241
1328033008613,138.309
1328033068613,138.442
1328033128613,138.949
1328033188613,138.304
1328033248613,138.169
1328033308613,138.594
1328033368613,138.422
1328033428613,138.570
1328033488613,138.228
1328033548613,138.259
1328033608613,138.054
1328033668613,138.193
1328033728613,138.238
1328033788613,138.244
1328033848613,138.451